Weather in Novopavlovka

Ukraine / Mykolaiv District     47°39′41″N   30°33′12″E
temp.,
°C
wind,
m/s
gust,
m/s
humid.,
%
clouds,
%
prec.,
mm/h
press.,
hPa
HPBL,
m
17 october, sun
sun1700:00+9n4873100 0.0 1019211
03:00+8n378295 0.0 1019164
06:00+9n4880100 0.0 1019255
09:00+10n587878 0.0 1019406
12:00+13n566087 0.0 1020832
15:00+14nnw444820 0.0 10191298
18:00+11nnw36565 0.0 101995
21:00+8nnw346398 0.0 102159
18 october, mon
mon1800:00+7nnw367194 0.0 1021122
03:00+6nnw34745 0.0 102264
06:00+5nnw34778 0.0 102258
09:00+6nw3468100 0.0 1023188
12:00+11nw455199 0.0 1023876
15:00+13nw574144 0.0 10211412
18:00+11nw3549100 0.0 102183
21:00+9wnw3856100 0.0 1022237
19 october, tue
tue1900:00+7wnw3668100 0.0 1023124
03:00+7wnw511765 0.0 1022381
06:00+8nw6127574 0.0 1023732
09:00+8nw6107354 0.0 1025675
12:00+11nnw67405 0.0 10261531
15:00+12nnw56295 0.0 10261789
18:00+9nnw33355 0.0 102725
21:00+7nw234022 0.0 102821
20 october, wed
wed2000:00+6wnw1142100 0.0 102910
03:00+5w224541 0.0 102910
06:00+4sw2246100 0.0 102910
09:00+7ssw234195 0.0 102995
12:00+12ssw45385 0.0 1027633
15:00+15ssw564045 0.0 10261195
18:00+12s4654100 0.0 102494
21:00+10s61370100 0.0 1024354
21 october, thu
thu2100:00+9s6148630 0.0 1023366
03:00+9s614936 0.0 1022411
06:00+9ssw71592100 0.0 1021417
09:00+10s715827 0.0 1020546
12:00+16ssw9125294 0.0 1019902
15:00+18ssw81244100 0.0 10161170
18:00+15s81357100 0.0 1015495
21:00+11s81581100 0.0 1015429